When you browse on this site, cookies collect data to enhance your experience and personalize the content and advertising you see.
Visit our Privacy Policy to learn more. By continuing to use the site, you agree to this use of cookies and data.
  • în România
  • Lista ţărilor
  • Pe 7 zile
  • Temperatura apei
  • Hartă satelitară
  • Meteo pe hartă
  • Widget-uri
  • user-avatar
    Intrare

    Meteo pe oră la Castlebar

    Astăzi, 26 Martie, Marţi

    Timp Temperatura Precipitaţii Vânt Presiune Umiditate
    00:00 +6°C° 0 mm 1 m/s 772 mmHg 89%
    01:00 +5°C° 0 mm 1 m/s 772 mmHg 90%
    02:00 +4°C° 0 mm 2 m/s 772 mmHg 92%
    03:00 +4°C° 0 mm 2 m/s 772 mmHg 92%
    04:00 +4°C° 0 mm 2 m/s 771 mmHg 93%
    05:00 +4°C° 0 mm 2 m/s 771 mmHg 93%
    06:00 +6°C° 0 mm 2 m/s 771 mmHg 89%
    07:00 +7°C° 0 mm 3 m/s 771 mmHg 85%
    08:00 +9°C° 0 mm 3 m/s 771 mmHg 80%
    09:00 +8°C° 0 mm 4 m/s 771 mmHg 77%
    10:00 +10°C° 0 mm 4 m/s 771 mmHg 74%
    11:00 +11°C° 0 mm 4 m/s 771 mmHg 71%
    12:00 +11°C° 0 mm 4 m/s 771 mmHg 71%
    13:00 +11°C° 0 mm 4 m/s 771 mmHg 71%
    14:00 +11°C° 0 mm 4 m/s 771 mmHg 71%
    15:00 +10°C° 0 mm 4 m/s 771 mmHg 74%
    16:00 +8°C° 0 mm 4 m/s 771 mmHg 76%
    17:00 +9°C° 0 mm 3 m/s 771 mmHg 79%
    18:00 +8°C° 0 mm 3 m/s 771 mmHg 82%
    19:00 +7°C° 0 mm 2 m/s 771 mmHg 85%
    20:00 +7°C° 0 mm 2 m/s 771 mmHg 88%
    21:00 +7°C° 0 mm 2 m/s 772 mmHg 89%
    22:00 +7°C° 0 mm 2 m/s 772 mmHg 89%
    23:00 +7°C° 0 mm 2 m/s 772 mmHg 89%

    Mâine, 27 Martie, Miercuri

    Timp Temperatura Precipitaţii Vânt Presiune Umiditate
    00:00 +7°C° 0 mm 2 m/s 772 mmHg 88%
    01:00 +7°C° 0 mm 2 m/s 771 mmHg 87%
    02:00 +7°C° 0 mm 3 m/s 771 mmHg 86%
    03:00 +7°C° 0 mm 3 m/s 771 mmHg 85%
    04:00 +8°C° 0 mm 3 m/s 771 mmHg 85%
    05:00 +8°C° 0 mm 3 m/s 772 mmHg 85%
    06:00 +8°C° 0 mm 3 m/s 772 mmHg 84%
    07:00 +7°C° 0 mm 4 m/s 772 mmHg 82%
    08:00 +8°C° 0 mm 4 m/s 772 mmHg 81%
    09:00 +8°C° 0 mm 4 m/s 772 mmHg 80%
    10:00 +10°C° 0 mm 4 m/s 772 mmHg 78%
    11:00 +10°C° 0 mm 4 m/s 773 mmHg 76%
    12:00 +10°C° 0 mm 4 m/s 773 mmHg 76%
    13:00 +10°C° 0 mm 4 m/s 773 mmHg 76%
    14:00 +11°C° 0 mm 4 m/s 773 mmHg 76%
    15:00 +10°C° 0 mm 4 m/s 773 mmHg 77%
    16:00 +10°C° 0 mm 3 m/s 772 mmHg 78%
    17:00 +10°C° 0 mm 3 m/s 772 mmHg 79%
    18:00 +9°C° 0 mm 3 m/s 773 mmHg 82%
    19:00 +8°C° 0 mm 2 m/s 773 mmHg 86%
    20:00 +7°C° 0 mm 2 m/s 773 mmHg 89%
    21:00 +7°C° 0 mm 2 m/s 773 mmHg 89%
    22:00 +7°C° 0 mm 2 m/s 773 mmHg 90%
    23:00 +6°C° 0 mm 2 m/s 773 mmHg 91%

    Poimâine, 28 Martie, Joi

    Timp Temperatura Precipitaţii Vânt Presiune Umiditate
    00:00 +7°C° 0 mm 2 m/s 773 mmHg 90%
    01:00 +7°C° 0 mm 2 m/s 773 mmHg 89%
    02:00 +7°C° 0 mm 2 m/s 773 mmHg 88%
    03:00 +7°C° 0 mm 2 m/s 773 mmHg 90%
    04:00 +7°C° 0 mm 2 m/s 773 mmHg 92%
    05:00 +6°C° 0 mm 2 m/s 773 mmHg 93%
    06:00 +7°C° 0 mm 2 m/s 773 mmHg 91%
    07:00 +8°C° 0 mm 3 m/s 773 mmHg 88%
    08:00 +9°C° 0 mm 3 m/s 773 mmHg 85%
    09:00 +11°C° 0 mm 3 m/s 773 mmHg 79%
    10:00 +12°C° 0 mm 4 m/s 773 mmHg 73%
    11:00 +13°C° 0 mm 4 m/s 773 mmHg 67%
    12:00 +13°C° 0 mm 4 m/s 772 mmHg 64%
    13:00 +13°C° 0 mm 4 m/s 772 mmHg 61%
    14:00 +13°C° 0 mm 5 m/s 771 mmHg 58%
    15:00 +12°C° 0 mm 4 m/s 771 mmHg 61%
    16:00 +11°C° 0 mm 4 m/s 770 mmHg 63%
    17:00 +10°C° 0 mm 4 m/s 770 mmHg 66%
    18:00 +9°C° 0 mm 3 m/s 770 mmHg 72%
    19:00 +8°C° 0 mm 3 m/s 770 mmHg 77%
    20:00 +5°C° 0 mm 3 m/s 770 mmHg 83%
    21:00 +5°C° 0 mm 3 m/s 770 mmHg 85%
    22:00 +7°C° 0 mm 3 m/s 769 mmHg 88%
    23:00 +6°C° 0 mm 4 m/s 769 mmHg 90%

    29 Martie, Vineri

    Timp Temperatura Precipitaţii Vânt Presiune Umiditate
    00:00 +6°C° 0 mm 4 m/s 769 mmHg 91%
    01:00 +5°C° 0 mm 4 m/s 768 mmHg 92%
    02:00 +5°C° 0 mm 4 m/s 768 mmHg 92%
    03:00 +5°C° 0 mm 4 m/s 767 mmHg 93%
    04:00 +5°C° 0 mm 4 m/s 767 mmHg 94%
    05:00 +5°C° 0 mm 3 m/s 767 mmHg 95%
    06:00 +6°C° 0 mm 4 m/s 767 mmHg 91%
    07:00 +8°C° 0 mm 5 m/s 767 mmHg 88%
    08:00 +9°C° 0 mm 6 m/s 767 mmHg 84%
    09:00 +9°C° 0 mm 6 m/s 767 mmHg 83%
    10:00 +10°C° 0 mm 6 m/s 767 mmHg 83%
    11:00 +10°C° 0 mm 6 m/s 766 mmHg 82%
    12:00 +10°C° 0 mm 6 m/s 766 mmHg 80%
    13:00 +10°C° 0 mm 5 m/s 766 mmHg 79%
    14:00 +12°C° 0 mm 5 m/s 765 mmHg 78%
    15:00 +11°C° 0 mm 4 m/s 765 mmHg 80%
    16:00 +11°C° 0 mm 4 m/s 765 mmHg 82%
    17:00 +10°C° 0 mm 3 m/s 765 mmHg 83%
    18:00 +10°C° 0 mm 2 m/s 765 mmHg 87%
    19:00 +9°C° 0 mm 2 m/s 765 mmHg 90%
    20:00 +8°C° 0 mm 2 m/s 766 mmHg 93%
    21:00 +8°C° 0 mm 2 m/s 766 mmHg 93%
    22:00 +7°C° 0 mm 2 m/s 766 mmHg 93%
    23:00 +7°C° 0 mm 2 m/s 766 mmHg 94%

    30 Martie, Sâmbătă

    Timp Temperatura Precipitaţii Vânt Presiune Umiditate
    00:00 +8°C° 0 mm 2 m/s 765 mmHg 92%
    01:00 +9°C° 0 mm 1 m/s 765 mmHg 91%
    02:00 +9°C° 0 mm 1 m/s 765 mmHg 90%
    03:00 +8°C° 0 mm 2 m/s 765 mmHg 91%
    04:00 +8°C° 0 mm 2 m/s 765 mmHg 91%
    05:00 +8°C° 0 mm 2 m/s 765 mmHg 92%
    06:00 +8°C° 0.1 mm 3 m/s 766 mmHg 90%
    07:00 +6°C° 0.1 mm 4 m/s 766 mmHg 88%
    08:00 +6°C° 0.1 mm 5 m/s 767 mmHg 86%
    09:00 +6°C° 0 mm 5 m/s 767 mmHg 81%
    10:00 +7°C° 0 mm 5 m/s 767 mmHg 76%
    11:00 +7°C° 0 mm 5 m/s 768 mmHg 71%
    12:00 +8°C° 0 mm 6 m/s 768 mmHg 68%
    13:00 +8°C° 0 mm 6 m/s 768 mmHg 64%
    14:00 +8°C° 0 mm 6 m/s 768 mmHg 61%
    15:00 +7°C° 0 mm 5 m/s 768 mmHg 61%
    16:00 +6°C° 0 mm 5 m/s 769 mmHg 62%
    17:00 +6°C° 0 mm 5 m/s 769 mmHg 63%
    18:00 +5°C° 0 mm 4 m/s 769 mmHg 67%
    19:00 +4°C° 0 mm 3 m/s 770 mmHg 72%
    20:00 +3°C° 0 mm 3 m/s 771 mmHg 76%
    21:00 +2°C° 0 mm 3 m/s 771 mmHg 77%
    22:00 +3°C° 0 mm 2 m/s 771 mmHg 78%
    23:00 +2°C° 0 mm 2 m/s 771 mmHg 79%

    31 Martie, Duminică

    Timp Temperatura Precipitaţii Vânt Presiune Umiditate
    00:00 +2°C° 0 mm 2 m/s 771 mmHg 79%
    01:00 +2°C° 0 mm 2 m/s 771 mmHg 79%
    02:00 +1°C° 0 mm 2 m/s 771 mmHg 79%
    03:00 +2°C° 0 mm 1 m/s 771 mmHg 80%
    04:00 +2°C° 0 mm 1 m/s 772 mmHg 80%
    05:00 +2°C° 0 mm 1 m/s 772 mmHg 81%
    06:00 +2°C° 0 mm 2 m/s 772 mmHg 74%
    07:00 +4°C° 0 mm 2 m/s 772 mmHg 68%
    08:00 +5°C° 0 mm 2 m/s 772 mmHg 62%
    09:00 +6°C° 0 mm 2 m/s 772 mmHg 58%
    10:00 +7°C° 0 mm 2 m/s 772 mmHg 54%
    11:00 +8°C° 0 mm 2 m/s 772 mmHg 50%
    12:00 +9°C° 0 mm 2 m/s 772 mmHg 51%
    13:00 +9°C° 0 mm 2 m/s 772 mmHg 51%
    14:00 +10°C° 0 mm 2 m/s 772 mmHg 51%
    15:00 +10°C° 0 mm 1 m/s 772 mmHg 55%
    16:00 +9°C° 0 mm 1 m/s 771 mmHg 60%
    17:00 +9°C° 0 mm 1 m/s 771 mmHg 65%
    18:00 +8°C° 0 mm 1 m/s 771 mmHg 67%
    19:00 +7°C° 0 mm 1 m/s 771 mmHg 69%
    20:00 +5°C° 0 mm 0 m/s 771 mmHg 72%
    21:00 +6°C° 0 mm 1 m/s 771 mmHg 72%
    22:00 +6°C° 0 mm 1 m/s 771 mmHg 71%
    23:00 +6°C° 0 mm 1 m/s 770 mmHg 71%
    Arată mai mult